Regional Weather Roundup
Issued by NWS Cleveland, OH

Home | Current Version | Previous Version | Text Only | Print | Product List | Glossary Off
Versions: 1 2 3 4 5 6 7 8 9 10 11 12 13 14 15 16 17 18 19 20 21 22 23 24 25 26 27 28 29 30 31 32 33 34 35 36 37 38 39 40 41 42 43 44 45 46 47 48 49 50

000
ASUS41 KCLE 231412
RWRCLE
OHIO REGIONAL WEATHER ROUNDUP
NATIONAL WEATHER SERVICE WILMINGTON, OH
1000 AM EDT SUN APR 23 2017

NOTE: "FAIR" INDICATES FEW OR NO CLOUDS BELOW 12,000 FEET WITH NO
SIGNIFICANT WEATHER AND/OR OBSTRUCTIONS TO VISIBILITY.

OHZ001>008-015>018-024>027-034-035-043-044-231500-
   NORTHWEST OHIO

CITY           SKY/WX    TMP DP  RH WIND       PRES   REMARKS
DEFIANCE       FAIR      51  35  54 E7        30.13F
FINDLAY        FAIR      53  35  50 NE9       30.12S
TOLEDO EXPRESS FAIR      52  30  43 E3        30.13F
TOLEDO EXEC    FAIR      53  40  61 E6        30.14F
LIMA           FAIR      52  38  58 NE12      30.11S
$$

OHZ009>014-019>023-028>033-038-089-231500-
   NORTHEAST OHIO

CITY           SKY/WX    TMP DP  RH WIND       PRES   REMARKS
CLE-HOPKINS    FAIR      55  32  41 E6        30.16S
CLE-LAKEFRONT  FAIR      50  42  74 NW7       30.14R
CUY CO. ARPT   SUNNY     55  37  50 S6        30.15S
LORAIN-ELYRIA  FAIR      52  34  50 E5        30.14S
ASHTABULA      FAIR      52  38  58 S6        30.15S
AKRON-CANTON   FAIR      52  36  54 E9        30.12F
WOOSTER        FAIR      50  37  61 E12       30.12F
MANSFIELD      FAIR      50  35  56 E10       30.11F
YOUNGSTOWN     FAIR      51  34  52 E10       30.14F
$$

OHZ042-051>053-060>062-070>072-077>081-231500-
  SOUTHWEST OHIO

CITY           SKY/WX    TMP DP  RH WIND       PRES   REMARKS
CINC-COVINGTON FAIR      51  38  60 E16       30.03R
CINC-LUNKEN    FAIR      53  40  61 E10       30.05S
HAMILTON       FAIR      53  39  59 NE13      30.05F
DAYTON         FAIR      53  33  46 E15       30.07S
WRIGHT-PAT AFB FAIR      53  34  47 NE10      30.06S
DAYTON GENERAL FAIR      52  36  54 E12       30.05R
WILMINGTON     FAIR      50  40  68 NE15G23   30.04S
$$

OHZ036-037-039>041-045>050-054>059-063>069-073>076-082>088-231500-
  CENTRAL AND SOUTHEAST OHIO

CITY           SKY/WX    TMP DP  RH WIND       PRES   REMARKS
COLUMBUS       FAIR      53  38  56 E9        30.06F
OSU AIRPORT    FAIR      53  38  56 NE12      30.06F
BOLTON FIELD   SUNNY     52  37  58 E13       30.07F
RICKENBACK AFB FAIR      52  37  58 E10       30.06S
NEWARK         FAIR      52  35  52 E10       30.07F
MARION         FAIR      54  35  48 E9        30.10F
LANCASTER      FAIR      54  39  57 NE10      30.07R
ZANESVILLE     FAIR      54  37  52 E10       30.08R
NEW PHILLY     FAIR      51  38  60 E9        30.11F
$$




USA.gov is the U.S. government's official web portal to all federal, state and local government web resources and services.